Location: 22
(39.7117°N, 89.5929°W)
Time: 06:32:48
(UTC-05:00)

A-11 Canister half - Pass Details

Date: 04 February 2023
Orbit: 1526 x 1682 km, 47.3° (Epoch: 01 April)

Event Time Altitude Azimuth Distance (km) Brightness Sun altitude
Exits shadow 04:25:59 25° 200° (SSW) 2,691 10.0 -30.6°
Maximum altitude 04:31:21 51° 138° (SE) 1,851 9.5 -29.6°
Drops below altitude 10° 04:40:14 10° 66° (ENE) 3,713 11.8 -27.9°
Sets 04:43:24 0° 61° (ENE) 4,711 12.5 -27.2°
